Wind_Speed
15 15 16 17 17 19 21 23 27 29 29 30 31 30 29 29 29 29 30 30 31 32 32 31 31 31 32 32 33 34 34 35 36 38 39 39 40 40 40 40 40 39 38 38
15 16 17 18 19 20 22 23 27 28 28 29 30 29 27 26 26 26 27 28 29 29 29 29 29 29 30 30 31 31 31 32 33 35 36 37 38 39 38 39 39 40 39 38
16 16 16 18 19 20 22 23 25 28 28 26 26 26 24 23 23 24 25 26 27 27 27 28 28 27 27 27 27 28 29 30 30 31 33 34 35 36 37 37 37 38 38 37
16 15 16 18 19 20 23 22 23 24 24 23 22 24 22 24 24 25 26 26 26 25 25 25 25 24 25 25 25 26 26 27 27 28 29 30 31 32 33 35 36 36 36 36
13 14 16 17 19 20 20 20 19 19 19 18 19 22 24 24 25 25 25 25 24 23 23 22 22 22 22 22 22 23 22 23 23 24 25 26 28 29 29 30 32 33 33 35
12 13 15 17 17 18 17 17 16 15 15 16 18 20 24 24 24 24 24 23 22 22 22 21 21 21 20 20 20 20 20 20 20 21 21 22 23 24 25 26 27 28 29 31
11 11 13 15 15 15 15 15 14 13 15 16 18 20 20 21 22 22 22 22 21 21 20 20 20 20 20 19 19 19 18 18 18 18 17 17 18 19 20 22 23 24 25 27
11 10 9 11 13 13 13 12 10 8 7 13 15 17 18 19 19 20 21 21 21 20 19 20 20 20 20 19 19 18 17 17 16 15 15 14 13 13 14 16 18 20 22 23
9 9 9 10 11 11 11 9 9 8 8 10 14 16 15 17 18 19 20 20 20 20 20 20 20 20 20 19 18 18 17 16 15 14 13 12 10 10 10 11 13 15 17 19
7 8 7 8 9 9 9 8 8 8 8 7 11 15 17 17 18 19 19 19 20 20 21 21 20 20 20 20 19 18 17 16 16 14 13 12 10 9 8 8 9 10 12 14
4 5 5 6 8 8 8 7 7 8 8 9 10 13 15 16 17 18 18 19 20 21 21 21 20 20 21 20 20 19 19 18 17 16 14 13 12 10 8 7 7 8 9 10
1 3 5 6 7 8 8 8 8 8 9 9 10 12 14 15 17 18 18 19 20 21 21 21 21 21 21 21 21 21 20 19 18 17 16 15 15 12 10 9 7 6 6 6
2 3 5 6 7 8 8 8 8 8 9 10 11 12 13 14 16 17 18 19 20 21 21 22 22 21 21 22 22 22 22 22 20 19 17 17 16 14 13 11 10 8 6 5
4 4 6 7 8 9 8 8 8 9 10 10 11 12 13 14 15 17 18 19 20 21 22 22 22 22 22 23 23 22 22 22 22 20 19 18 18 16 15 14 12 10 9 7
4 5 6 7 8 9 9 9 9 9 10 11 11 12 13 14 15 16 18 19 20 20 21 22 22 22 22 23 23 23 23 23 23 22 21 20 18 18 17 15 14 12 11 9
4 5 6 7 7 8 9 9 10 10 10 11 11 12 13 14 15 16 17 18 19 20 20 21 22 22 23 23 23 23 23 23 22 22 22 21 20 19 18 18 16 14 13 12
4 5 6 6 7 8 9 10 10 10 10 11 11 12 13 13 14 15 16 17 19 20 20 20 21 21 22 23 23 23 23 23 23 22 22 22 21 21 20 19 18 17 16 14
3 4 5 6 6 7 8 9 9 10 10 11 11 11 12 13 14 15 16 17 18 19 19 20 20 21 21 22 23 23 23 23 23 23 23 22 22 21 21 21 19 18 17 16
1 2 3 4 5 6 7 7 7 8 9 10 10 11 11 12 13 14 15 16 17 19 19 19 20 20 21 22 22 23 23 23 23 23 23 23 22 22 22 22 21 19 18 17
3 3 3 4 4 5 5 5 6 7 7 8 9 10 11 11 12 13 14 15 16 17 18 18 19 19 20 21 22 22 23 23 23 23 23 23 23 23 23 23 22 21 20 19
6 6 6 5 5 5 5 5 6 6 7 7 8 9 10 11 11 12 13 14 15 16 17 17 18 19 19 20 21 21 22 23 23 23 24 23 23 23 23 23 23 22 21 20
9 8 8 8 7 6 7 7 7 7 7 7 8 9 9 10 11 11 12 13 14 15 15 16 17 17 18 19 19 20 21 22 22 22 23 23 23 23 23 22 22 22 22 21
11 11 10 9 9 8 8 8 8 8 8 8 9 9 10 10 10 11 11 12 12 13 14 14 15 16 17 17 18 19 20 20 21 21 22 22 22 22 22 22 22 22 21 21
14 13 13 12 12 11 11 10 10 10 10 9 9 9 10 10 10 11 11 11 11 12 12 13 14 14 15 16 17 17 18 19 19 20 20 20 21 21 21 22 21 21 21 21
16 16 16 15 15 14 14 13 12 12 12 11 11 10 10 10 10 10 11 11 11 11 11 12 12 13 13 14 15 16 16 17 17 18 18 19 19 20 20 21 21 21 21 21
19 19 19 19 18 18 17 16 16 15 14 14 13 12 12 11 11 11 11 11 11 11 11 11 11 12 12 12 13 14 14 15 15 16 17 17 18 18 18 19 20 20 20 20
Wind_Direction
252 263 271 281 289 294 296 296 295 299 306 308 308 308 308 307 307 306 305 304 303 302 301 299 296 294 291 289 287 285 282 279 277 275 273 272 271 270 268 265 263 260 259 255
256 263 274 284 290 293 295 297 297 302 306 309 310 311 311 310 312 311 310 309 308 307 304 303 301 299 297 294 290 287 285 283 279 276 273 271 270 268 266 263 261 259 257 254
257 271 282 288 292 297 298 299 301 306 310 310 311 314 317 319 319 318 316 315 313 311 309 307 305 304 303 300 296 292 289 286 284 279 275 272 269 267 265 263 260 257 254 254
262 278 286 291 297 301 301 306 307 309 312 316 321 322 328 329 327 325 324 321 319 317 315 315 313 311 309 306 303 298 295 292 289 284 279 273 269 266 265 262 259 257 255 252
266 279 288 295 302 304 306 310 311 312 316 320 328 328 329 332 331 331 329 328 326 325 323 323 322 318 316 313 311 308 302 298 295 290 285 277 271 267 263 260 258 256 255 254
276 285 293 300 305 308 311 313 313 316 329 332 331 328 329 335 335 335 336 336 335 334 334 333 331 331 328 325 322 319 313 309 305 300 293 285 276 269 265 260 258 256 255 253
272 286 297 305 310 313 317 321 327 335 336 323 326 327 333 336 338 341 343 343 343 342 343 342 341 340 338 334 332 329 324 319 315 311 305 296 285 275 267 262 258 256 254 251
298 302 309 313 317 322 326 329 331 327 310 312 328 335 342 343 346 348 349 350 352 351 349 349 349 349 347 344 342 341 338 333 330 325 318 313 300 284 273 265 261 257 255 252
280 308 323 324 326 330 333 337 336 331 332 329 331 349 353 352 354 355 355 357 359 358 357 357 357 358 358 358 357 355 353 352 349 346 339 331 319 303 288 278 270 263 259 254
288 309 328 332 336 340 343 346 346 349 353 341 337 350 357 359 358 359 1 3 4 5 7 7 8 9 9 10 9 7 6 3 2 3 1 357 349 329 309 295 284 276 270 262
298 321 349 350 352 352 355 358 2 5 10 2 349 358 359 3 3 5 8 10 11 12 14 16 16 16 16 16 16 15 14 14 14 14 13 10 4 356 343 327 308 293 286 275
340 352 9 16 14 12 12 12 12 12 12 7 4 10 5 8 9 11 13 15 16 17 18 19 19 19 19 20 21 21 21 22 22 22 23 21 18 17 14 4 347 331 312 304
48 24 25 36 33 25 25 23 19 16 15 13 12 14 10 11 14 17 18 19 20 21 22 23 24 25 26 27 28 28 28 28 28 27 27 26 24 22 20 16 12 3 351 337
64 44 38 37 36 34 33 28 24 21 19 18 18 17 16 17 18 19 19 21 23 24 26 28 28 29 29 29 29 29 28 28 28 28 28 28 27 25 22 20 18 15 8 0
64 54 48 44 39 38 37 33 29 26 23 22 20 19 20 21 20 19 20 22 24 26 27 28 28 28 28 28 28 28 28 28 28 29 29 27 26 26 25 24 20 16 11 6
62 52 48 48 45 43 41 37 34 32 29 26 24 24 23 23 23 22 23 24 26 27 26 26 27 27 27 27 27 28 28 28 28 28 28 27 27 26 26 24 23 20 18 15
57 49 47 50 51 48 46 41 38 36 33 29 28 28 27 26 25 24 24 24 23 24 24 24 24 24 25 25 26 27 27 27 27 27 28 28 29 29 28 27 26 26 25 23
42 39 41 42 46 48 43 42 39 37 34 32 30 27 24 23 22 21 21 21 21 22 22 22 23 23 24 24 25 26 27 27 27 28 28 28 27 28 27 26 27 28 29 29
334 3 16 24 32 40 36 32 31 30 29 27 26 24 22 21 22 22 21 21 21 21 21 22 23 24 24 24 25 25 25 26 27 27 28 28 28 28 28 28 29 31 32 32
283 303 323 341 356 9 15 12 13 17 20 18 19 19 19 19 20 19 19 19 18 18 20 21 23 23 24 24 24 24 25 26 27 27 28 29 29 30 30 31 32 33 34 34
274 282 291 302 314 331 339 341 346 352 357 358 2 5 7 9 11 11 13 14 15 16 17 18 19 21 22 23 24 25 25 27 27 28 29 29 30 31 31 32 33 34 34 35
270 275 281 287 294 305 310 316 323 328 331 335 342 348 352 355 358 0 3 6 8 10 13 15 17 18 20 21 23 24 24 25 26 27 28 29 29 30 31 32 32 33 34 34
267 271 276 281 286 290 294 300 307 312 317 321 323 327 333 339 343 347 351 355 358 2 5 8 11 14 16 17 19 21 22 24 25 26 27 28 29 29 30 30 31 31 32 33
264 267 270 274 277 280 284 288 293 299 305 309 313 317 320 324 328 333 337 341 346 351 355 358 2 6 10 13 15 17 19 21 23 24 25 26 27 28 29 30 30 31 32 33
266 265 266 268 271 274 278 281 285 288 293 297 301 305 310 315 319 324 329 333 336 339 343 347 351 355 0 4 9 13 15 16 19 21 22 23 24 26 27 28 29 31 32 33
263 263 264 266 267 270 272 275 278 281 285 288 291 295 299 303 306 311 316 322 327 330 334 337 341 345 349 354 358 2 7 11 14 16 19 21 22 23 25 26 27 28 29 31
Height
5907 5909 5908 5908 5908 5907 5905 5903 5899 5895 5893 5889 5886 5883 5880 5876 5872 5868 5865 5861 5857 5854 5850 5846 5843 5840 5838 5835 5833 5831 5830 5829 5828 5827 5826 5827 5827 5828 5830 5832 5834 5837 5839 5842
5906 5906 5906 5906 5905 5904 5902 5900 5895 5892 5890 5886 5881 5877 5875 5871 5868 5864 5860 5856 5852 5848 5844 5840 5837 5833 5831 5828 5825 5823 5821 5819 5818 5817 5816 5816 5817 5818 5819 5821 5824 5826 5829 5832
5903 5904 5904 5903 5902 5900 5898 5896 5892 5888 5885 5882 5878 5874 5870 5867 5863 5859 5855 5851 5847 5842 5838 5835 5831 5827 5824 5821 5818 5816 5813 5811 5809 5808 5807 5807 5807 5808 5809 5811 5813 5816 5819 5822
5901 5902 5901 5900 5899 5897 5894 5892 5889 5885 5881 5877 5875 5870 5866 5863 5859 5855 5851 5847 5842 5838 5833 5829 5826 5822 5819 5815 5812 5809 5806 5804 5801 5800 5798 5798 5798 5799 5800 5801 5804 5806 5809 5812
5899 5900 5899 5897 5896 5893 5890 5888 5885 5882 5878 5875 5872 5868 5864 5860 5856 5852 5848 5843 5838 5834 5830 5826 5822 5818 5814 5810 5807 5803 5800 5797 5795 5792 5791 5790 5789 5790 5791 5792 5794 5797 5799 5802
5897 5897 5896 5895 5893 5890 5887 5885 5882 5879 5876 5873 5871 5868 5863 5859 5855 5850 5846 5841 5836 5831 5827 5823 5818 5814 5810 5807 5803 5799 5796 5792 5789 5787 5784 5783 5782 5782 5783 5784 5786 5788 5791 5794
5896 5895 5894 5892 5890 5887 5885 5883 5879 5876 5874 5872 5870 5867 5864 5858 5854 5849 5845 5839 5834 5830 5825 5821 5817 5812 5808 5804 5800 5796 5792 5789 5785 5782 5780 5778 5777 5776 5777 5778 5779 5781 5783 5786
5894 5893 5892 5890 5888 5885 5883 5881 5879 5877 5876 5872 5868 5865 5863 5858 5853 5849 5844 5839 5834 5829 5824 5820 5815 5811 5806 5802 5798 5794 5790 5786 5783 5780 5777 5775 5773 5772 5772 5773 5774 5775 5777 5779
5893 5891 5890 5888 5886 5884 5881 5879 5877 5876 5873 5871 5867 5865 5862 5857 5853 5848 5843 5839 5834 5829 5824 5819 5815 5810 5806 5801 5797 5793 5789 5785 5782 5778 5775 5773 5771 5770 5769 5770 5770 5771 5772 5774
5891 5890 5889 5887 5885 5883 5881 5878 5876 5874 5872 5870 5868 5864 5861 5857 5853 5849 5844 5839 5835 5830 5825 5820 5815 5811 5806 5802 5798 5794 5789 5785 5782 5779 5775 5772 5770 5769 5768 5768 5768 5769 5769 5770
5890 5890 5889 5887 5884 5882 5881 5878 5876 5874 5871 5870 5867 5867 5862 5858 5854 5850 5845 5841 5836 5831 5827 5822 5817 5812 5808 5803 5799 5795 5791 5787 5783 5780 5776 5774 5771 5769 5768 5767 5767 5767 5767 5767
5890 5889 5888 5886 5884 5882 5880 5878 5876 5875 5872 5870 5868 5868 5862 5859 5855 5851 5847 5842 5838 5833 5829 5824 5819 5815 5810 5806 5801 5797 5793 5789 5785 5782 5778 5775 5773 5770 5769 5767 5766 5765 5765 5764
5890 5889 5888 5886 5886 5883 5880 5878 5876 5875 5873 5870 5868 5869 5863 5860 5856 5853 5849 5844 5840 5836 5831 5826 5822 5817 5813 5809 5804 5800 5796 5792 5788 5784 5781 5778 5775 5772 5770 5768 5766 5765 5764 5763
5890 5889 5889 5887 5885 5883 5881 5879 5877 5875 5873 5871 5869 5867 5864 5861 5858 5855 5851 5847 5843 5838 5834 5830 5825 5821 5817 5812 5808 5803 5799 5795 5791 5788 5784 5781 5778 5775 5772 5770 5767 5765 5764 5763
5891 5890 5888 5887 5885 5884 5882 5880 5878 5876 5874 5873 5871 5868 5866 5863 5860 5857 5853 5849 5845 5841 5837 5833 5829 5824 5820 5816 5811 5807 5803 5799 5795 5791 5787 5783 5780 5777 5774 5771 5769 5766 5764 5763
5891 5891 5889 5888 5886 5885 5883 5881 5880 5878 5876 5874 5872 5870 5867 5864 5862 5859 5855 5852 5848 5844 5840 5836 5832 5828 5824 5819 5815 5811 5806 5802 5798 5794 5790 5786 5783 5780 5776 5773 5770 5768 5765 5763
5892 5891 5890 5889 5887 5886 5885 5883 5881 5879 5877 5876 5874 5872 5869 5866 5864 5861 5858 5854 5851 5847 5843 5839 5835 5831 5827 5823 5818 5814 5810 5806 5802 5797 5793 5790 5786 5783 5779 5776 5773 5770 5767 5765
5892 5891 5891 5889 5889 5887 5888 5884 5883 5881 5879 5877 5875 5873 5871 5868 5866 5863 5860 5857 5853 5849 5846 5842 5838 5834 5830 5826 5822 5817 5813 5809 5805 5801 5797 5793 5789 5786 5782 5779 5775 5772 5769 5766
5892 5892 5891 5890 5889 5888 5887 5885 5883 5882 5881 5879 5876 5874 5872 5870 5867 5865 5862 5858 5855 5852 5848 5844 5841 5837 5833 5829 5825 5821 5817 5813 5809 5804 5800 5796 5792 5789 5785 5781 5778 5774 5771 5769
5892 5892 5891 5890 5889 5889 5889 5886 5884 5884 5882 5880 5877 5875 5873 5871 5869 5867 5863 5860 5857 5854 5850 5847 5843 5840 5836 5832 5828 5824 5820 5816 5812 5808 5804 5800 5796 5792 5789 5785 5781 5777 5774 5771
5891 5891 5890 5889 5889 5888 5888 5886 5885 5885 5884 5880 5878 5876 5874 5872 5870 5868 5865 5862 5859 5856 5853 5849 5846 5842 5839 5835 5831 5828 5824 5820 5816 5812 5808 5804 5800 5796 5792 5789 5785 5781 5778 5775
5889 5889 5889 5888 5888 5889 5886 5885 5885 5884 5881 5880 5878 5876 5874 5872 5870 5868 5865 5863 5860 5857 5854 5851 5848 5845 5841 5838 5834 5831 5827 5823 5819 5815 5811 5807 5804 5800 5796 5793 5789 5786 5782 5779
5887 5887 5887 5887 5888 5886 5885 5884 5883 5882 5880 5879 5877 5876 5874 5872 5870 5868 5866 5863 5861 5858 5855 5853 5850 5847 5844 5840 5837 5833 5830 5826 5822 5819 5815 5811 5808 5804 5800 5796 5793 5790 5786 5783
5884 5884 5884 5884 5884 5883 5882 5882 5881 5880 5879 5877 5876 5874 5873 5871 5869 5867 5865 5863 5861 5858 5856 5853 5851 5848 5845 5842 5839 5836 5832 5829 5825 5822 5818 5815 5811 5808 5804 5800 5797 5793 5790 5787
5880 5880 5880 5880 5880 5880 5879 5879 5878 5877 5876 5875 5874 5873 5871 5870 5868 5866 5864 5862 5860 5858 5856 5854 5851 5849 5846 5843 5840 5837 5834 5831 5828 5825 5821 5818 5814 5811 5808 5804 5801 5797 5794 5791
5875 5875 5876 5876 5876 5876 5876 5875 5875 5874 5873 5872 5871 5870 5869 5868 5866 5865 5863 5861 5859 5857 5855 5853 5851 5848 5846 5844 5841 5838 5835 5833 5830 5827 5824 5820 5817 5814 5811 5807 5804 5801 5798 5794